FW8535 Weather Reports


time (UTC)temp
C
wind
direction
speed
KPH
gust
KPH
rain 1hr
cm
rain 24hr
cm
rain mn
cm
humidity
%
barometer
mb
20260901060045 14 207 0.0 4.8 0.00 0.00 0.00 60 1013.2
20260901055544 14 207 1.6 6.4 0.00 0.00 0.00 59 1013.2
20260901055144 15 275 0.0 0.0 0.00 0.00 0.00 59 1013.1
20260901054546 15 275 0.0 0.0 0.00 0.00 0.00 59 1013.1
20260901054046 15 275 0.0 0.0 0.00 0.00 0.00 59 1013.0
20260901053547 15 275 0.0 0.0 0.00 0.00 0.00 59 1012.8
20260901053100 15 275 0.0 0.0 0.00 0.00 0.00 59 1012.8
20260901052545 15 275 0.0 0.0 0.00 0.00 0.00 59 1012.8
20260901052045 15 275 0.0 0.0 0.00 0.00 0.00 59 1012.9
20260901051545 15 275 0.0 0.0 0.00 0.00 0.00 58 1012.9
20260901051045 15 275 0.0 0.0 0.00 0.00 0.00 58 1012.9
20260901050547 15 275 0.0 0.0 0.00 0.00 0.00 58 1012.6
20260901050044 15 275 0.0 3.2 0.00 0.00 0.00 58 1012.7
20260901045547 15 275 0.0 3.2 0.00 0.00 0.00 58 1012.7
20260901045143 15 275 1.6 3.2 0.00 0.00 0.00 58 1012.5
20260901044549 15 275 1.6 3.2 0.00 0.00 0.00 58 1012.5
20260901044041 15 275 0.0 3.2 0.00 0.00 0.00 58 1012.4
20260901043541 15 275 1.6 3.2 0.00 0.00 0.00 58 1012.5
20260901043100 15 275 1.6 4.8 0.00 0.00 0.00 57 1012.5
20260901042539 15 275 1.6 4.8 0.00 0.00 0.00 57 1012.5
20260901042039 15 275 0.0 3.2 0.00 0.00 0.00 56 1012.6
20260901041539 15 275 0.0 0.0 0.00 0.00 0.00 56 1012.5
20260901041038 15 275 0.0 0.0 0.00 0.00 0.00 54 1012.6
20260901040539 16 275 0.0 3.2 0.00 0.00 0.00 53 1012.4
20260901040052 16 275 0.0 4.8 0.00 0.00 0.00 52 1012.4
20260901035537 17 275 1.6 4.8 0.00 0.00 0.00 52 1012.4
20260901035138 17 275 0.0 3.2 0.00 0.00 0.00 50 1012.6
20260901034552 17 275 0.0 3.2 0.00 0.00 0.00 50 1012.6
20260901034037 17 275 0.0 3.2 0.00 0.00 0.00 50 1012.7
20260901033538 17 275 0.0 3.2 0.00 0.00 0.00 50 1012.7
20260901033052 17 276 0.0 3.2 0.00 0.00 0.00 49 1012.6
20260901032538 18 276 0.0 4.8 0.00 0.00 0.00 49 1012.6
20260901032036 18 276 0.0 6.4 0.00 0.00 0.00 48 1012.7
20260901031536 18 275 4.8 6.4 0.00 0.00 0.00 48 1012.7
20260901031037 18 279 3.2 6.4 0.00 0.00 0.00 47 1012.5
20260901030539 18 284 1.6 6.4 0.00 0.00 0.00 47 1012.6
20260901030035 18 279 1.6 6.4 0.00 0.00 0.00 48 1012.6
20260901025535 18 266 3.2 6.4 0.00 0.00 0.00 48 1012.6
20260901025035 18 270 3.2 4.8 0.00 0.00 0.00 48 1012.3
20260901024545 18 270 3.2 4.8 0.00 0.00 0.00 48 1012.4
20260901024035 18 270 3.2 6.4 0.00 0.00 0.00 47 1012.6
20260901023534 18 270 3.2 6.4 0.00 0.00 0.00 46 1012.3
20260901023036 19 270 3.2 4.8 0.00 0.00 0.00 46 1012.4
20260901022534 19 270 1.6 4.8 0.00 0.00 0.00 46 1012.4
20260901022034 19 270 3.2 4.8 0.00 0.00 0.00 45 1012.5
20260901021533 20 270 3.2 4.8 0.00 0.00 0.00 45 1012.4
20260901021033 20 270 3.2 4.8 0.00 0.00 0.00 44 1012.2
20260901020535 20 270 3.2 4.8 0.00 0.00 0.00 43 1012.1
20260901020034 21 270 1.6 4.8 0.00 0.00 0.00 42 1011.9
20260901015531 21 270 3.2 6.4 0.00 0.00 0.00 40 1011.9
20260901015131 22 273 3.2 11.3 0.00 0.00 0.00 39 1011.7
20260901014531 22 274 3.2 11.3 0.00 0.00 0.00 39 1011.6
20260901014030 22 290 3.2 14.5 0.00 0.00 0.00 39 1011.5
20260901013532 22 290 6.4 16.1 0.00 0.00 0.00 38 1011.5
20260901013030 23 277 8.0 22.5 0.00 0.00 0.00 38 1011.5
20260901012529 23 273 8.0 22.5 0.00 0.00 0.00 38 1011.4
20260901012032 23 252 4.8 16.1 0.00 0.00 0.00 38 1011.4
20260901011529 23 282 6.4 16.1 0.00 0.00 0.00 37 1011.4
20260901011029 23 278 6.4 17.7 0.00 0.00 0.00 37 1011.4
20260901010528 24 317 8.0 24.1 0.00 0.00 0.00 36 1011.4
20260901010034 24 267 8.0 20.9 0.00 0.00 0.00 36 1011.3
20260901005531 25 305 8.0 20.9 0.00 0.00 0.00 36 1011.2
20260901005127 25 275 8.0 19.3 0.00 0.00 0.00 35 1011.2
20260901004526 25 273 8.0 19.3 0.00 0.00 0.00 35 1011.1
20260901004025 25 248 6.4 19.3 0.00 0.00 0.00 35 1011.2
20260901003528 25 304 6.4 25.7 0.00 0.00 0.00 35 1011.1
20260901003025 25 272 14.5 32.2 0.00 0.00 0.00 34 1011.1
20260901002527 25 285 12.9 32.2 0.00 0.00 0.00 34 1011.0
20260901002025 25 252 8.0 27.4 0.00 0.00 0.00 34 1011.0
20260901001528 25 322 12.9 27.4 0.00 0.00 0.00 33 1011.1
20260901001025 25 304 9.7 25.7 0.00 0.00 0.00 34 1011.1
20260901000524 26 265 12.9 25.7 0.00 0.00 0.00 33 1011.1
20260901000024 26 290 12.9 30.6 0.00 0.00 0.00 32 1011.1
20260831235525 26 262 14.5 30.6 0.00 0.00 0.00 33 1011.0
20260831235026 26 268 11.3 25.7 0.00 0.00 0.00 32 1010.8
20260831234535 26 273 12.9 29.0 0.00 0.00 0.00 32 1010.9
20260831234025 26 265 9.7 29.0 0.00 0.00 0.00 33 1010.9
20260831233525 26 254 14.5 30.6 0.00 0.00 0.00 32 1010.8
20260831233025 26 303 11.3 30.6 0.00 0.00 0.00 33 1010.8
20260831232525 26 292 12.9 27.4 0.00 0.00 0.00 33 1011.0
20260831232025 26 264 12.9 29.0 0.00 0.00 0.00 33 1010.9
20260831231524 27 244 14.5 29.0 0.00 0.00 0.00 32 1010.9
20260831231024 27 248 11.3 25.7 0.00 0.00 0.00 32 1010.9
20260831230524 27 289 14.5 25.7 0.00 0.00 0.00 32 1010.9
20260831230025 27 271 14.5 25.7 0.00 0.00 0.00 33 1011.1
20260831225526 26 263 11.3 30.6 0.00 0.00 0.00 33 1011.1
20260831225124 26 321 12.9 32.2 0.00 0.00 0.00 32 1011.0
20260831224527 27 355 9.7 32.2 0.00 0.00 0.00 32 1011.0
20260831224026 27 271 16.1 32.2 0.00 0.00 0.00 32 1011.1
20260831223527 27 252 9.7 30.6 0.00 0.00 0.00 32 1011.0
20260831223026 27 242 16.1 30.6 0.00 0.00 0.00 32 1010.7
20260831222526 27 308 14.5 37.0 0.00 0.00 0.00 31 1010.9
20260831222029 27 282 12.9 27.4 0.00 0.00 0.00 32 1010.8
20260831221527 27 264 16.1 29.0 0.00 0.00 0.00 32 1010.8
20260831221025 27 278 14.5 29.0 0.00 0.00 0.00 32 1010.7
20260831220525 27 269 14.5 30.6 0.00 0.00 0.00 32 1010.8
20260831220029 27 289 14.5 35.4 0.00 0.00 0.00 32 1010.8
20260831215525 27 290 19.3 35.4 0.00 0.00 0.00 31 1010.9
20260831214523 27 267 14.5 29.0 0.00 0.00 0.00 32 1010.8
20260831214022 27 257 14.5 29.0 0.00 0.00 0.00 32 1010.8
20260831213522 27 237 14.5 29.0 0.00 0.00 0.00 32 1010.8
20260831213035 27 275 12.9 30.6 0.00 0.00 0.00 32 1010.8
20260831212522 27 247 14.5 30.6 0.00 0.00 0.00 33 1010.8
20260831212022 27 272 11.3 37.0 0.00 0.00 0.00 32 1010.8
20260831211522 27 261 17.7 37.0 0.00 0.00 0.00 32 1010.9
20260831211021 27 248 16.1 30.6 0.00 0.00 0.00 32 1011.0
20260831210521 27 315 19.3 43.5 0.00 0.00 0.00 32 1011.3
20260831210021 27 248 19.3 43.5 0.00 0.00 0.00 31 1010.9
20260831205520 27 261 14.5 30.6 0.00 0.00 0.00 32 1011.0
20260831205024 27 272 14.5 29.0 0.00 0.00 0.00 32 1011.2
20260831204522 27 272 17.7 29.0 0.00 0.00 0.00 32 1011.2
20260831204022 27 268 14.5 29.0 0.00 0.00 0.00 33 1011.1
20260831203522 27 253 11.3 37.0 0.00 0.00 0.00 33 1011.0
20260831203036 27 260 16.1 37.0 0.00 0.00 0.00 31 1011.0
20260831202519 26 286 16.1 33.8 0.00 0.00 0.00 32 1011.0
20260831202019 26 238 14.5 33.8 0.00 0.00 0.00 33 1010.8
20260831201519 26 250 14.5 37.0 0.00 0.00 0.00 34 1011.0
20260831201018 26 261 20.9 37.0 0.00 0.00 0.00 34 1011.1
20260831200518 26 223 16.1 46.7 0.00 0.00 0.00 34 1011.0
20260831200017 26 229 16.1 38.6 0.00 0.00 0.00 34 1011.0
20260831195516 26 246 16.1 41.8 0.00 0.00 0.00 34 1010.9
20260831195115 26 263 16.1 32.2 0.00 0.00 0.00 35 1011.0
20260831194523 26 295 14.5 32.2 0.00 0.00 0.00 35 1011.0
20260831194019 26 259 14.5 46.7 0.00 0.00 0.00 36 1011.0
20260831193519 26 247 17.7 46.7 0.00 0.00 0.00 36 1011.1
20260831193021 26 263 17.7 35.4 0.00 0.00 0.00 36 1010.9
20260831192524 26 271 17.7 35.4 0.00 0.00 0.00 37 1011.0
20260831192017 26 273 17.7 37.0 0.00 0.00 0.00 37 1011.0
20260831191516 26 265 16.1 38.6 0.00 0.00 0.00 37 1011.1
20260831191017 25 253 19.3 38.6 0.00 0.00 0.00 37 1011.0
20260831190515 25 249 14.5 37.0 0.00 0.00 0.00 38 1010.9
20260831190015 25 315 16.1 37.0 0.00 0.00 0.00 38 1011.0
20260831185517 25 245 22.5 33.8 0.00 0.00 0.00 37 1010.9
20260831185014 25 246 14.5 38.6 0.00 0.00 0.00 38 1010.9
20260831184507 25 247 14.5 38.6 0.00 0.00 0.00 38 1010.9
20260831184006 25 251 16.1 38.6 0.00 0.00 0.00 38 1010.8
20260831183507 25 262 19.3 33.8 0.00 0.00 0.00 38 1010.8
20260831183006 25 256 19.3 32.2 0.00 0.00 0.00 38 1010.8
20260831182505 25 238 12.9 27.4 0.00 0.00 0.00 38 1010.9
20260831182004 25 303 14.5 30.6 0.00 0.00 0.00 39 1010.9
20260831181503 25 259 12.9 33.8 0.00 0.00 0.00 39 1010.8
20260831181002 24 267 17.7 33.8 0.00 0.00 0.00 40 1010.9
20260831180502 24 290 16.1 37.0 0.00 0.00 0.00 40 1010.8
20260831180003 24 279 19.3 37.0 0.00 0.00 0.00 39 1011.0
20260831175502 25 264 16.1 32.2 0.00 0.00 0.00 39 1011.2
20260831175102 25 286 12.9 32.2 0.00 0.00 0.00 40 1011.2
20260831174100 24 292 16.1 29.0 0.00 0.00 0.00 40 1010.9
20260831173603 24 290 17.7 38.6 0.00 0.00 0.00 40 1010.9
20260831173100 23 272 14.5 38.6 0.00 0.00 0.00 41 1011.0
20260831172601 23 258 14.5 32.2 0.00 0.00 0.00 41 1011.0
20260831172056 23 246 16.1 41.8 0.00 0.00 0.00 41 1011.0
20260831171604 23 250 20.9 41.8 0.00 0.00 0.00 40 1011.1
20260831171055 23 265 16.1 38.6 0.00 0.00 0.00 41 1010.8
20260831170554 23 280 17.7 38.6 0.00 0.00 0.00 41 1010.8
20260831170054 23 254 20.9 37.0 0.00 0.00 0.00 41 1010.7
20260831165554 22 292 17.7 35.4 0.00 0.00 0.00 41 1010.8
20260831165052 22 238 16.1 33.8 0.00 0.00 0.00 41 1010.8
20260831164056 22 294 17.7 33.8 0.00 0.00 0.00 41 1010.8
20260831163554 22 254 19.3 30.6 0.00 0.00 0.00 41 1010.7
20260831163054 22 278 17.7 32.2 0.00 0.00 0.00 41 1010.7
20260831162553 22 238 17.7 32.2 0.00 0.00 0.00 41 1010.6
20260831162052 22 269 17.7 32.2 0.00 0.00 0.00 40 1010.7
20260831161552 22 267 16.1 32.2 0.00 0.00 0.00 40 1010.7
20260831161052 22 261 17.7 32.2 0.00 0.00 0.00 40 1010.8
20260831160551 22 261 19.3 38.6 0.00 0.00 0.00 40 1010.6
20260831160117 22 270 19.3 41.8 0.00 0.00 0.00 40 1010.8
20260831155550 21 277 22.5 41.8 0.00 0.00 0.00 39 1010.7
20260831155049 21 263 17.7 43.5 0.00 0.00 0.00 40 1010.6
20260831154051 21 261 19.3 43.5 0.00 0.00 0.00 41 1010.5
20260831153546 21 240 19.3 43.5 0.00 0.00 0.00 41 1010.5
20260831153121 21 263 20.9 37.0 0.00 0.00 0.00 41 1010.5
20260831152544 20 234 17.7 37.0 0.00 0.00 0.00 42 1010.7
20260831152045 20 237 19.3 30.6 0.00 0.00 0.00 42 1010.5
20260831151542 20 238 12.9 32.2 0.00 0.00 0.00 43 1010.4
20260831151042 20 253 22.5 32.2 0.00 0.00 0.00 42 1010.4
20260831150544 20 236 16.1 43.5 0.00 0.00 0.00 43 1010.6
20260831150040 20 237 19.3 43.5 0.00 0.00 0.00 43 1010.6
20260831145539 20 265 16.1 33.8 0.00 0.00 0.00 42 1010.4
20260831145042 19 290 19.3 43.5 0.00 0.00 0.00 42 1010.4
20260831144039 19 233 22.5 43.5 0.00 0.00 0.00 42 1010.2
20260831143538 19 228 22.5 40.2 0.00 0.00 0.00 43 1010.1
20260831143038 18 236 17.7 33.8 0.00 0.00 0.00 44 1010.1
20260831142536 18 256 20.9 41.8 0.00 0.00 0.00 44 1010.2
20260831142035 18 238 19.3 41.8 0.00 0.00 0.00 45 1010.4
20260831141535 17 284 25.7 37.0 0.00 0.00 0.00 45 1010.3
20260831141035 17 229 20.9 30.6 0.00 0.00 0.00 46 1010.2
20260831140530 17 241 16.1 29.0 0.00 0.00 0.00 47 1010.4
20260831140029 17 248 17.7 29.0 0.00 0.00 0.00 48 1010.3
20260831135529 16 238 17.7 29.0 0.00 0.00 0.00 49 1010.4
20260831135129 16 246 17.7 27.4 0.00 0.00 0.00 50 1010.5
20260831134027 16 240 17.7 32.2 0.00 0.00 0.00 52 1010.4
20260831133526 15 240 16.1 27.4 0.00 0.00 0.00 53 1010.4
20260831133125 15 238 16.1 27.4 0.00 0.00 0.00 54 1010.4
20260831132523 15 232 14.5 25.7 0.00 0.00 0.00 55 1010.3
20260831132022 15 251 14.5 22.5 0.00 0.00 0.00 56 1010.3
20260831131525 15 233 8.0 22.5 0.00 0.00 0.00 57 1010.4
20260831131019 14 235 11.3 22.5 0.00 0.00 0.00 57 1010.2
20260831130518 14 222 9.7 27.4 0.00 0.00 0.00 57 1010.0
20260831130017 13 246 16.1 27.4 0.00 0.00 0.00 58 1010.1
20260831125516 13 223 9.7 19.3 0.00 0.00 0.00 59 1010.0
20260831125017 13 266 8.0 19.3 0.00 0.00 0.00 59 1009.9
20260831124013 13 238 8.0 20.9 0.00 0.00 0.00 60 1010.0
20260831123515 13 244 9.7 24.1 0.00 0.00 0.00 60 1009.8
20260831123111 13 257 14.5 24.1 0.00 0.00 0.00 60 1009.8
20260831122511 13 234 12.9 20.9 0.00 0.00 0.00 61 1009.7
20260831122011 12 238 12.9 19.3 0.00 0.00 0.00 63 1009.8
20260831121521 12 232 11.3 20.9 0.00 0.00 0.00 63 1009.8
20260831121013 13 239 11.3 20.9 0.00 0.00 0.00 62 1009.8
20260831120509 13 234 11.3 22.5 0.00 0.00 0.00 62 1009.9
20260831120023 13 233 14.5 24.1 0.00 0.00 0.00 63 1009.9
20260831115508 13 229 16.1 24.1 0.00 0.00 0.00 64 1009.7
20260831115014 12 221 14.5 19.3 0.00 0.00 0.00 68 1009.5
20260831114009 12 223 14.5 19.3 0.00 0.00 0.00 70 1009.7
20260831113511 12 229 12.9 24.1 0.00 0.00 0.00 69 1009.4
20260831113008 12 225 14.5 24.1 0.00 0.00 0.00 67 1009.4
20260831112508 12 244 14.5 24.1 0.00 0.00 0.00 68 1009.2
20260831112008 12 242 14.5 24.1 0.00 0.00 0.00 70 1009.2
20260831111506 12 199 11.3 24.1 0.00 0.00 0.00 70 1009.1
20260831111007 12 215 12.9 19.3 0.00 0.00 0.00 70 1009.1
20260831110507 12 230 11.3 17.7 0.00 0.00 0.00 71 1009.2
20260831110006 12 227 11.3 14.5 0.00 0.00 0.00 71 1009.1
20260831105506 11 234 9.7 16.1 0.00 0.00 0.00 74 1009.1
20260831105009 12 211 8.0 16.1 0.00 0.00 0.00 73 1008.8
20260831104007 13 219 11.3 20.9 0.00 0.00 0.00 70 1008.9
20260831103506 13 227 14.5 20.9 0.00 0.00 0.00 69 1008.9
20260831103005 12 229 11.3 16.1 0.00 0.00 0.00 71 1008.9
20260831102506 13 222 11.3 29.0 0.00 0.00 0.00 71 1009.0
20260831102005 13 222 12.9 29.0 0.00 0.00 0.00 69 1009.1
20260831101506 13 237 6.4 25.7 0.00 0.00 0.00 71 1009.0
20260831101005 13 238 12.9 25.7 0.00 0.00 0.00 73 1009.0
20260831100502 13 236 11.3 24.1 0.00 0.00 0.00 75 1009.1
20260831100003 13 229 16.1 24.1 0.00 0.00 0.00 76 1009.2
20260831095501 13 225 16.1 24.1 0.00 0.00 0.00 76 1009.2
20260831095100 13 239 17.7 24.1 0.00 0.00 0.00 78 1009.1
20260831094035 11 250 11.3 17.7 0.00 0.00 0.00 85 1009.1
20260831093532 10 229 6.4 16.1 0.00 0.00 0.00 85 1009.4
20260831093030 10 143 0.0 6.4 0.00 0.00 0.00 83 1009.3
20260831092529 11 143 3.2 6.4 0.00 0.00 0.00 83 1009.1
20260831092032 11 143 1.6 9.7 0.00 0.00 0.00 83 1009.1
20260831091528 11 150 4.8 9.7 0.00 0.00 0.00 82 1009.1
20260831090557 11 140 8.0 16.1 0.00 0.00 0.00 81 1009.0
20260831090054 12 123 8.0 16.1 0.00 0.00 0.00 81 1009.0
20260831085554 12 200 3.2 9.7 0.00 0.00 0.00 81 1008.9
20260831085055 11 185 4.8 11.3 0.00 0.00 0.00 82 1008.9
20260831084557 12 188 4.8 12.9 0.00 0.00 0.00 82 1008.8
20260831084053 12 187 9.7 14.5 0.00 0.00 0.00 82 1008.9
20260831083554 11 181 8.0 11.3 0.00 0.00 0.00 83 1008.7
20260831083057 11 199 8.0 11.3 0.00 0.00 0.00 83 1008.8
20260831082554 11 195 4.8 12.9 0.00 0.00 0.00 82 1008.6
20260831082052 12 212 8.0 12.9 0.00 0.00 0.00 82 1008.7
20260831081558 12 210 8.0 12.9 0.00 0.00 0.00 82 1008.7
20260831080554 12 209 9.7 14.5 0.00 0.00 0.00 82 1008.6
20260831080050 12 221 9.7 17.7 0.00 0.00 0.00 81 1008.7
20260831075550 12 209 11.3 17.7 0.00 0.00 0.00 81 1008.6
20260831075049 12 190 12.9 17.7 0.00 0.00 0.00 81 1008.6
20260831074553 12 193 12.9 19.3 0.00 0.00 0.00 81 1008.7
20260831074048 12 204 11.3 16.1 0.00 0.00 0.00 80 1008.5
20260831073551 12 196 8.0 17.7 0.00 0.00 0.00 79 1008.6
20260831073048 12 189 12.9 19.3 0.00 0.00 0.00 79 1008.6
20260831072551 12 215 12.9 16.1 0.00 0.00 0.00 78 1008.7
20260831072046 12 215 9.7 14.5 0.00 0.00 0.00 78 1008.6
20260831071546 12 217 11.3 14.5 0.00 0.00 0.00 77 1008.6
20260831070549 12 220 8.0 12.9 0.00 0.00 0.00 77 1008.6
20260831070108 12 222 9.7 16.1 0.00 0.00 0.00 77 1008.7
20260831065546 12 225 9.7 17.7 0.00 0.00 0.00 78 1008.6
20260831065044 12 209 11.3 17.7 0.00 0.00 0.00 79 1008.6
20260831064645 12 209 6.4 11.3 0.00 0.00 0.00 78 1008.7
20260831064043 12 229 6.4 8.0 0.00 0.00 0.00 77 1008.7
20260831063541 12 241 4.8 8.0 0.00 0.00 0.00 76 1008.5
20260831063041 12 242 3.2 11.3 0.00 0.00 0.00 77 1008.8
20260831062541 12 241 4.8 11.3 0.00 0.00 0.00 77 1008.8
20260831062041 12 257 3.2 11.3 0.00 0.00 0.00 79 1008.7
20260831061541 12 258 1.6 11.3 0.00 0.00 0.00 80 1008.9
20260831060540 11 227 6.4 11.3 0.00 0.00 0.00 83 1009.1